{"data":{"norad_id":48991,"intl_designator":"2021-060AA","name":"ONEWEB-0273","alt_names":[],"object_type":"PAYLOAD","status":"ACTIVE","operator":null,"country":"UK","launch_date":"2021-07-01","launch_site_code":"VOSTO","launch_vehicle":null,"mission":null,"orbit_class":"UNKNOWN","rcs_meters":null,"size_class":null,"mass_kg":null,"dimensions":null,"purposes":["comms"],"wikipedia_slug":null,"has_3d_model":false,"image_url":null,"decayed_at":null,"tle_current":{"epoch":"2026-05-25T04:30:51.554016Z","epoch_age_seconds":52734,"freshness":"FRESH","line1":"1 48991U 21060AA  26145.18809669  .00000005  00000+0 -20604-4 0  9996","line2":"2 48991  87.9108 233.3497 0001869  99.2786 260.8557 13.16593730236565","mean_motion":13.1659373,"eccentricity":0.0001869,"inclination_deg":87.9108,"raan_deg":233.3497,"arg_perigee_deg":99.2786,"mean_anomaly_deg":260.8557,"bstar":-2.0604e-5,"rev_number":23656,"period_min":109.37314732617,"perigee_km":1196.3427538184,"apogee_km":1199.1746236269,"semimajor_km":7575.8956887227,"source":"CELESTRAK","updated_at":"2026-05-25T13:38:22.477643Z"}}}